Orbital Elements at Epoch 2459000.5 (2020-May-31.0) TDB
Reference: JPL 30 (heliocentric ecliptic J2000)
Element | Value | Uncertainty (1-sigma) | Units |
e | .1899273571139468 | 2.6165e-08 | |
a | 2.319082284652275 | 7.1546e-09 | au |
q | 1.878625115398495 | 6.1688e-08 | au |
i | 8.910576381658462 | 4.2198e-06 | deg |
node | 319.6119249273974 | 1.8547e-05 | deg |
peri | 86.69594965616417 | 2.1745e-05 | deg |
M | 269.3508368359326 | 1.1724e-05 | deg |
tp | 2459325.313418949823 (2021-Apr-20.81341895) | 4.2489e-05 | TDB |
period | 1289.949368978704 3.53 | 5.9695e-06 1.634e-08 | d yr |
n | .2790807210402561 | 1.2915e-09 | deg/d |
Q | 2.759539453906056 | 8.5135e-09 | au |
|
| | Orbit Determination Parameters
Additional Information
|